Regional Weather Roundup
Issued by NWS Sioux Falls, SD

Home | Current Version | Previous Version | Text Only | Print | Product List | Glossary On
Versions: 1 2 3 4 5 6 7 8 9 10 11 12 13 14 15 16 17 18 19 20 21 22 23 24 25 26 27 28 29 30 31 32 33 34 35 36 37 38 39 40 41 42 43 44 45 46 47 48 49 50
000
ASUS43 KFSD 251910
RWRFSD

WEATHER ROUNDUP FOR SE SOUTH DAKOTA/SW MINNESOTA/NW IOWA
NATIONAL WEATHER SERVICE SIOUX FALLS SD
200 PM CDT SAT APR 25 2015

NOTE: "FAIR" INDICATES FEW OR NO CLOUDS BELOW 12,000 FEET WITH NO
SIGNIFICANT WEATHER AND OR OBSTRUCTIONS TO VISIBILITY.


SDZ038>040-050-052>070-252000-
SOUTHEAST SOUTH DAKOTA

CITY           SKY/WX    TMP DP  RH WIND       PRES   REMARKS
BROOKINGS      CLOUDY    54  45  71 E13       29.80S
CHAMBERLAIN    CLOUDY    56  46  69 SE10      29.76R
HURON          CLOUDY    58  44  60 E10G18    29.78S
MADISON        CLOUDY    52  50  93 E15       29.78S
MITCHELL       CLOUDY    53  46  77 E12       29.78S
SIOUX FALLS    CLOUDY    57  43  59 E18       29.77R
WINNER         CLOUDY    57  48  72 E14       29.74S
YANKTON        CLOUDY    57  43  58 E13G21    29.74S
$$

MNZ071-072-080-081-089-090-097-098-252000-
SOUTHWEST MINNESOTA

CITY           SKY/WX    TMP DP  RH WIND       PRES   REMARKS
FAIRMONT       CLOUDY    52  37  58 NE14G20   29.78S
JACKSON        PTSUNNY   54  37  54 E14G25    29.80R
LUVERNE        PTSUNNY   55  41  58 E15G23    29.78S
MARSHALL       MOSUNNY   55  39  54 E13       29.81R
MONTEVIDEO     PTSUNNY   55  45  67 SE15G21   29.84S
REDWOOD FALLS  PTSUNNY   58  39  49 E12G22    29.82R
TRACY          PTSUNNY   57  42  55 E12G21    29.81S
WORTHINGTON    PTSUNNY   54  37  54 E16G26    29.79R
$$

IAZ001>003-012>014-020>022-031-032-NEZ013-014-SDZ071-252000-
NORTHWEST IOWA

CITY           SKY/WX    TMP DP  RH WIND       PRES   REMARKS
CHEROKEE       FAIR      55  43  63 E15G22    29.74R
DENISON        CLOUDY    50  48  93 E13G20    29.69S
ESTHERVILLE    PTSUNNY   54  41  61 NE21G29   29.77R
LE MARS        PTSUNNY   57  43  58 E15G24    29.75S
ORANGE CITY    PTSUNNY   55  41  58 E14G20    29.75S
SHELDON        PTSUNNY   57  41  54 E18G24    29.76R
SIOUX CITY     CLOUDY    56  43  61 E12       29.74R
SPENCER        PTSUNNY   57  42  57 E22       29.77R
STORM LAKE     PTSUNNY   54  45  71 NE21G29   29.73S
$$

ABBREVIATIONS USED IN REMARKS
   TC - TEMPERATURE IN CELSIUS
  WCI - WIND CHILL INDEX
   HX - HEAT INDEX
  VSB - VISIBILITY




USA.gov is the U.S. government's official web portal to all federal, state and local government web resources and services.